Location: Eyeline Observatory
(43.2182°N, 78.8632°W)
Time: 22:55:36
(UTC-04:00)

N. Korean satellite - Pass Details

Date: 14 October 2017
Orbit: 459 x 517 km, 97.2° (Epoch: 21 October)

Event Time Altitude Azimuth Distance (km) Brightness Sun altitude
Rises 19:23:11 0° 172° (S) 2,547 10.2 -9.8°
Reaches altitude 10° 19:25:16 10° 175° (S) 1,661 9.2 -10.2°
Maximum altitude 19:28:50 69° 259° (W) 515 6.9 -10.8°
Drops below altitude 10° 19:32:21 10° 343° (NNW) 1,645 9.5 -11.5°
Sets 19:34:24 0° 346° (NNW) 2,519 10.4 -11.8°
